Voltar ao catálogo

COSMOS 996

AtivoMilitarPO
NORAD 10744·PAYLOAD·🇷🇺 Russia

Lançado Mar 28, 1978 de Plesetsk Cosmodrome

Loading…

Próximas Passagens (próximas 24 horas)

TLE

AtualizadoSource: Space-Track

Época: Sep 14, 2026, 15:20 UTC

1 10744U 78031A   26257.63949031  .00000049  00000-0  33818-4 0  9992
2 10744  82.9281  31.9334 0037292 169.9706 201.1159 13.76742422434178

Acompanhe COSMOS 996 em tempo real com AllMySat

Download on the App Store